This demonstration page uses our WeatherBlox Daily Observations layout. Learn more.

Left ArrowRight Arrow

Hourly Observations for April 20, 2020

Temp ( °F °C ) Dew Point ( °F °C ) Humidity (%) Winds ( mph kmh ) Pressure ( in mb ) Visibility ( mi km ) Precip ( " mm )
12:53 am 00:53 Clear 52 11.1 45 7.2 77 77 Calm 30.00 1016 10 16 0.00 0.00
1:53 am 01:53 Clear 52 11.1 45 7.2 77 77 Calm 30.01 1016 10 16 0.00 0.00
2:53 am 02:53 Clear 50 10 45 7.2 83 83 NNE 3 6 30.00 1016 10 16 0.00 0.00
3:53 am 03:53 Clear 48 8.9 44 6.7 86 86 Calm 30.00 1016 10 16 0.00 0.00
4:53 am 04:53 Clear 48 8.9 44 6.7 86 86 Calm 30.00 1016 10 16 0.00 0.00
5:53 am 05:53 Clear 47 8.3 44 6.7 90 90 Calm 30.01 1016 10 16 0.00 0.00
6:53 am 06:53 Sunny 47 8.3 44 6.7 90 90 Calm 30.03 1017 10 16 0.00 0.00
7:53 am 07:53 Sunny 50 10 45 7.2 83 83 Calm 30.04 1017 10 16 0.00 0.00
8:53 am 08:53 Sunny 56 13.3 47 8.3 72 72 Calm 30.05 1018 10 16 0.00 0.00
9:53 am 09:53 Sunny 60 15.6 49 9.4 67 67 S 3 6 30.05 1018 10 16 0.00 0.00
10:53 am 10:53 Sunny 62 16.7 48 8.9 60 60 SSE 3 6 30.06 1018 10 16 0.00 0.00
11:53 am 11:53 Mostly Sunny 64 17.8 49 9.4 58 58 S 10 17 30.06 1018 10 16 0.00 0.00
12:53 pm 12:53 Sunny 64 17.8 49 9.4 58 58 S 10 17 30.06 1018 10 16 0.00 0.00
1:53 pm 13:53 Sunny 67 19.4 50 10 55 55 S 10 17 30.04 1017 10 16 0.00 0.00
2:53 pm 14:53 Mostly Sunny 70 21.1 49 9.4 47 47 S 7 11 30.03 1017 10 16 0.00 0.00
3:53 pm 15:53 Sunny 70 21.1 47 8.3 44 44 SSW 9 15 30.02 1017 10 16 0.00 0.00
4:53 pm 16:53 Mostly Cloudy 70 21.1 47 8.3 44 44 S 9 15 30.02 1017 10 16 0.00 0.00
5:53 pm 17:53 Partly Cloudy with Light Rain 64 17.8 53 11.7 68 68 W 7 11 30.04 1017 10 16 0.02 0.51
6:53 pm 18:53 Sunny 65 18.3 51 10.6 61 61 S 7 11 30.04 1017 10 16 0.00 0.00
7:53 pm 19:53 Sunny 64 17.8 49 9.4 58 58 N 3 6 30.04 1017 10 16 0.00 0.00
8:53 pm 20:53 Clear 57 13.9 49 9.4 74 74 Calm 30.06 1018 10 16 0.00 0.00
9:53 pm 21:53 Clear 57 13.9 50 10 78 78 Calm 30.08 1019 10 16 0.00 0.00
10:53 pm 22:53 Clear 54 12.2 48 8.9 80 80 Calm 30.09 1019 10 16 0.00 0.00
11:53 pm 23:53 Clear 53 11.7 47 8.3 80 80 Calm 30.10 1019 10 16 0.00 0.00

Powered by AerisWeather